GW2028 Weather Reports


Display with metric or nautical units.
time (UTC)temp
F
wind
direction
speed
MPH
gust
MPH
rain 1hr
in
rain 24hr
in
rain mn
in
humidity
%
barometer
mb
20260510065718 48 0 0.0 0.0 0.00 0.27 0.05 90 1014.6
20260510065003 49 0 0.0 0.0 0.01 0.27 0.05 90 1014.5
20260510064503 49 336 0.0 2.0 0.01 0.27 0.05 90 1014.5
20260510064003 49 336 0.0 2.0 0.01 0.27 0.05 90 1014.4
20260510063717 49 336 0.0 2.0 0.02 0.27 0.05 89 1014.4
20260510063003 49 336 0.0 1.0 0.03 0.27 0.05 89 1014.3
20260510062503 49 336 0.0 1.0 0.04 0.27 0.05 88 1014.3
20260510062216 49 336 0.0 1.0 0.04 0.27 0.05 88 1014.3
20260510061503 50 336 0.0 2.0 0.05 0.27 0.05 88 1014.2
20260510061003 50 336 0.0 1.0 0.05 0.27 0.05 87 1014.2
20260510060503 50 336 1.0 3.0 0.05 0.27 0.05 87 1014.1
20260510060003 50 335 1.0 6.0 0.05 0.27 0.05 86 1014.0
20260510055503 50 329 2.0 8.0 0.05 0.27 0.05 86 1013.9
20260510055003 51 324 2.0 8.0 0.04 0.26 0.04 86 1014.0
20260510054717 51 340 2.0 8.0 0.04 0.26 0.04 86 1013.9
20260510054003 52 20 2.0 7.0 0.04 0.26 0.04 85 1013.9
20260510053503 52 28 2.0 8.0 0.03 0.25 0.03 84 1013.6
20260510053003 53 22 1.0 8.0 0.02 0.24 0.02 83 1014.4
20260510052503 53 357 1.0 7.0 0.01 0.23 0.01 83 1014.7
20260510052003 54 341 1.0 7.0 0.00 0.22 0.00 82 1014.6
20260510051503 54 323 1.0 4.0 0.00 0.22 0.00 81 1014.3
20260510051003 55 320 2.0 6.0 0.00 0.22 0.00 80 1014.0
20260510050717 55 322 2.0 6.0 0.00 0.22 0.00 80 1013.8
20260510050003 56 301 2.0 5.0 0.00 0.22 0.00 82 1013.2
20260510045503 57 284 2.0 5.0 0.00 0.22 0.00 82 1012.9
20260510045003 57 302 2.0 4.0 0.00 0.22 0.00 82 1012.8
20260510044503 58 280 2.0 7.0 0.00 0.22 0.00 83 1012.8
20260510044003 58 224 1.0 7.0 0.00 0.22 0.00 85 1012.6
20260510043717 58 182 0.0 3.0 0.00 0.22 0.00 85 1012.3
20260510043218 58 0 0.0 0.0 0.00 0.22 0.00 85 1012.3
20260510042503 58 182 0.0 2.0 0.00 0.22 0.00 83 1011.9
20260510042003 58 182 0.0 2.0 0.00 0.22 0.00 83 1011.8
20260510041503 58 0 0.0 0.0 0.00 0.22 0.00 82 1011.7
20260510041003 58 0 0.0 0.0 0.00 0.22 0.00 82 1011.7
20260510040503 58 182 1.0 3.0 0.00 0.22 0.00 82 1011.5
20260510040004 58 182 2.0 5.0 0.00 0.22 0.00 82 1011.4
20260510035503 58 182 2.0 5.0 0.00 0.22 0.22 82 1011.4
20260510035003 58 182 3.0 5.0 0.00 0.22 0.22 82 1011.5
20260510034503 58 182 3.0 7.0 0.00 0.22 0.22 82 1011.5
20260510034003 58 183 4.0 7.0 0.00 0.22 0.22 82 1011.5
20260510033716 58 183 4.0 7.0 0.00 0.22 0.22 82 1011.5
20260510033217 58 183 4.0 7.0 0.00 0.22 0.22 82 1011.4
20260510032503 58 185 4.0 8.0 0.00 0.22 0.22 82 1011.2
20260510032003 58 187 4.0 8.0 0.00 0.22 0.22 81 1011.2
20260510031503 58 192 4.0 11.0 0.00 0.22 0.22 81 1011.2
20260510031003 58 192 4.0 11.0 0.00 0.22 0.22 82 1011.2
20260510030503 58 194 4.0 10.0 0.00 0.22 0.22 82 1011.2
20260510030003 58 194 5.0 10.0 0.00 0.22 0.22 82 1011.3
20260510025718 58 193 4.0 10.0 0.00 0.22 0.22 82 1011.2
20260510025003 58 186 3.0 6.0 0.00 0.22 0.22 82 1011.4
20260510024503 58 181 3.0 5.0 0.00 0.22 0.22 82 1011.2
20260510024217 58 181 3.0 6.0 0.00 0.22 0.22 82 1011.0
20260510023503 58 185 3.0 6.0 0.00 0.22 0.22 81 1010.9
20260510023003 59 193 3.0 8.0 0.00 0.22 0.22 81 1011.0
20260510022503 59 199 3.0 8.0 0.00 0.22 0.22 80 1010.9
20260510022003 59 200 2.0 5.0 0.00 0.22 0.22 79 1010.8
20260510021503 58 200 2.0 4.0 0.00 0.22 0.22 80 1010.8
20260510021003 58 200 2.0 7.0 0.00 0.22 0.22 81 1010.9
20260510020503 58 199 2.0 7.0 0.00 0.22 0.22 82 1010.9
20260510020003 58 197 3.0 9.0 0.00 0.22 0.22 83 1010.8
20260510015503 58 194 4.0 12.0 0.00 0.22 0.22 83 1010.9
20260510015003 58 195 4.0 12.0 0.00 0.22 0.22 83 1010.9
20260510014503 58 198 3.0 7.0 0.00 0.22 0.22 83 1011.0
20260510014003 58 198 3.0 7.0 0.00 0.22 0.22 83 1010.9
20260510013503 58 201 3.0 10.0 0.00 0.22 0.22 84 1010.7
20260510013217 58 202 3.0 10.0 0.00 0.22 0.22 84 1010.7
20260510012503 58 209 4.0 10.0 0.00 0.22 0.22 84 1010.6
20260510012003 58 204 4.0 10.0 0.00 0.22 0.22 84 1010.4
20260510011503 58 195 3.0 7.0 0.00 0.22 0.22 85 1010.4
20260510011217 58 193 3.0 7.0 0.00 0.22 0.22 85 1010.3
20260510010503 58 200 3.0 9.0 0.00 0.22 0.22 86 1010.2
20260510010003 57 202 3.0 9.0 0.00 0.22 0.22 86 1010.3
20260510005503 57 199 4.0 10.0 0.00 0.22 0.22 87 1010.3
20260510005003 57 197 5.0 10.0 0.00 0.22 0.22 87 1010.3
20260510004717 57 198 5.0 13.0 0.00 0.22 0.22 88 1010.3
20260510004003 57 201 5.0 16.0 0.00 0.22 0.22 89 1010.3
20260510003503 57 204 5.0 16.0 0.00 0.22 0.22 90 1010.3
20260510003003 57 203 5.0 14.0 0.00 0.22 0.22 90 1010.3
20260510002503 57 194 4.0 14.0 0.01 0.22 0.22 91 1010.3
20260510002216 57 195 5.0 12.0 0.01 0.23 0.22 91 1010.2
20260510001503 57 198 5.0 13.0 0.01 0.23 0.22 92 1010.2
20260510001003 57 198 3.0 10.0 0.01 0.24 0.22 92 1010.2
20260510000503 57 197 4.0 10.0 0.03 0.24 0.22 93 1010.1
20260510000003 57 198 5.0 11.0 0.04 0.24 0.22 93 1010.1
20260509235503 56 199 4.0 11.0 0.07 0.25 0.22 93 1010.1
20260509235003 56 193 4.0 11.0 0.10 0.25 0.22 93 1010.1
20260509234503 56 189 4.0 10.0 0.13 0.25 0.22 92 1010.0
20260509234003 56 190 3.0 10.0 0.16 0.25 0.22 92 1010.0
20260509233503 56 190 3.0 9.0 0.20 0.25 0.22 92 1010.0
20260509233003 56 196 3.0 9.0 0.22 0.25 0.22 92 1010.0
20260509232503 56 203 3.0 9.0 0.21 0.25 0.21 92 1010.0
20260509232003 56 189 4.0 12.0 0.21 0.25 0.21 92 1010.1
20260509231503 56 183 5.0 12.0 0.21 0.25 0.21 92 1010.1
20260509231003 56 212 3.0 9.0 0.21 0.25 0.21 92 1010.3
20260509230717 56 240 3.0 9.0 0.20 0.24 0.20 91 1010.5
20260509230218 55 266 4.0 8.0 0.18 0.22 0.19 91 1010.5
20260509225503 55 265 5.0 15.0 0.15 0.19 0.16 90 1010.7
20260509225217 56 270 5.0 15.0 0.14 0.18 0.14 90 1010.6
20260509224503 56 292 5.0 13.0 0.09 0.13 0.09 87 1010.6
20260509224003 57 316 5.0 13.0 0.06 0.10 0.06 83 1010.2
20260509223503 59 301 6.0 22.0 0.02 0.06 0.02 78 1010.3
20260509223003 63 283 6.0 22.0 0.00 0.04 0.00 67 1010.0
20260509222503 68 255 4.0 10.0 0.00 0.04 0.00 55 1010.4
20260509222003 69 208 5.0 11.0 0.00 0.04 0.00 53 1008.3
20260509221503 69 204 6.0 15.0 0.00 0.04 0.00 52 1007.7
20260509221003 70 218 7.0 17.0 0.00 0.04 0.00 52 1007.5
20260509220503 70 348 9.0 17.0 0.00 0.04 0.00 51 1007.4
20260509220217 70 354 9.0 17.0 0.00 0.04 0.00 51 1007.4
20260509215716 70 359 9.0 17.0 0.00 0.04 0.00 51 1007.5
20260509215217 70 357 7.0 15.0 0.00 0.04 0.00 51 1007.5
20260509214503 70 359 7.0 17.0 0.00 0.04 0.00 52 1007.3
20260509214003 70 360 6.0 17.0 0.00 0.04 0.00 51 1007.2
20260509213503 70 359 8.0 20.0 0.00 0.04 0.00 51 1007.1
20260509213003 70 303 9.0 20.0 0.00 0.04 0.00 52 1007.1
20260509212503 71 188 8.0 15.0 0.00 0.04 0.00 53 1006.9
20260509212003 71 192 9.0 18.0 0.00 0.04 0.00 53 1007.0
20260509211503 71 193 9.0 18.0 0.00 0.04 0.00 52 1007.2
20260509211003 71 191 8.0 18.0 0.00 0.04 0.00 52 1007.1
20260509210503 71 205 8.0 18.0 0.00 0.04 0.00 52 1007.3
20260509210003 70 346 8.0 16.0 0.00 0.04 0.00 53 1007.4
20260509205503 70 197 8.0 17.0 0.00 0.04 0.00 51 1007.5
20260509205003 70 191 8.0 18.0 0.00 0.04 0.00 51 1007.6
20260509204503 70 201 8.0 18.0 0.00 0.04 0.00 51 1007.7
20260509204003 70 202 8.0 20.0 0.00 0.04 0.00 52 1007.7
20260509203503 70 193 8.0 20.0 0.00 0.04 0.00 52 1008.0
20260509203003 70 198 7.0 19.0 0.00 0.04 0.00 51 1007.9
20260509202503 71 198 7.0 15.0 0.00 0.04 0.00 53 1008.0
20260509202003 70 188 7.0 17.0 0.00 0.04 0.00 53 1008.0
20260509201503 70 185 8.0 19.0 0.00 0.04 0.00 51 1008.3
20260509201003 70 193 9.0 19.0 0.00 0.04 0.00 52 1008.3
20260509200503 71 194 9.0 18.0 0.00 0.04 0.00 53 1008.4
20260509200003 71 186 9.0 18.0 0.00 0.04 0.00 51 1008.4
20260509195503 71 183 8.0 17.0 0.00 0.04 0.00 54 1008.5
20260509195003 71 193 7.0 17.0 0.00 0.04 0.00 54 1008.5
20260509194503 70 185 8.0 18.0 0.00 0.04 0.00 54 1008.5
20260509194003 71 177 8.0 18.0 0.00 0.04 0.00 53 1008.6
20260509193717 71 180 8.0 18.0 0.00 0.04 0.00 53 1008.5
20260509193216 71 184 8.0 23.0 0.00 0.04 0.00 55 1008.8
20260509192503 70 180 8.0 18.0 0.00 0.04 0.00 54 1008.8
20260509192003 70 181 7.0 18.0 0.00 0.04 0.00 56 1008.8
20260509191503 69 194 6.0 16.0 0.00 0.04 0.00 58 1008.9
20260509191003 69 190 8.0 16.0 0.00 0.04 0.00 55 1009.2
20260509190717 70 192 7.0 20.0 0.00 0.04 0.00 52 1009.2
20260509190218 70 200 6.0 20.0 0.00 0.04 0.00 52 1009.4
20260509185503 70 205 7.0 18.0 0.00 0.04 0.00 57 1009.2
20260509185003 70 213 7.0 18.0 0.00 0.04 0.00 55 1009.4
20260509184717 69 219 6.0 18.0 0.00 0.04 0.00 55 1009.4
20260509184003 70 203 7.0 19.0 0.00 0.04 0.00 52 1009.5
20260509183503 70 190 7.0 19.0 0.00 0.04 0.00 53 1009.5
20260509183218 70 187 6.0 15.0 0.00 0.04 0.00 54 1009.4
20260509182503 71 198 6.0 17.0 0.00 0.04 0.00 53 1009.4
20260509182003 70 195 7.0 17.0 0.00 0.04 0.00 56 1009.4
20260509181503 70 190 7.0 17.0 0.00 0.04 0.00 56 1009.4
20260509181003 70 191 6.0 17.0 0.00 0.04 0.00 53 1009.3
20260509180503 71 199 5.0 14.0 0.00 0.04 0.00 56 1009.4
20260509180003 70 196 6.0 14.0 0.00 0.04 0.00 56 1009.5
20260509175503 70 190 6.0 13.0 0.00 0.04 0.00 56 1009.5
20260509175003 70 190 7.0 18.0 0.00 0.04 0.00 56 1009.7
20260509174503 70 196 6.0 18.0 0.00 0.04 0.00 55 1009.7
20260509174003 70 200 6.0 12.0 0.00 0.04 0.00 58 1009.7
20260509173503 70 184 6.0 13.0 0.00 0.04 0.00 61 1009.7
20260509173003 69 180 6.0 13.0 0.00 0.04 0.00 59 1009.6
20260509172503 68 185 7.0 13.0 0.00 0.04 0.00 60 1009.5
20260509172003 68 189 7.0 14.0 0.00 0.04 0.00 61 1009.7
20260509171716 68 192 7.0 14.0 0.00 0.04 0.00 61 1009.7
20260509171003 68 187 6.0 14.0 0.00 0.04 0.00 62 1009.7
20260509170503 68 201 6.0 12.0 0.00 0.04 0.00 64 1009.8
20260509170003 67 203 6.0 16.0 0.00 0.04 0.00 62 1009.8
20260509165503 67 202 6.0 16.0 0.00 0.04 0.00 65 1010.1
20260509165217 67 195 4.0 16.0 0.00 0.04 0.00 64 1010.1
20260509164503 66 207 4.0 12.0 0.00 0.04 0.00 67 1010.2
20260509164003 66 210 4.0 12.0 0.00 0.04 0.00 65 1010.2
20260509163716 66 202 4.0 12.0 0.00 0.04 0.00 70 1010.2
20260509163003 66 185 6.0 11.0 0.00 0.04 0.00 67 1009.9
20260509162503 66 185 5.0 11.0 0.00 0.04 0.00 68 1010.0
20260509162003 66 184 5.0 13.0 0.00 0.04 0.00 67 1010.3
20260509161503 65 185 3.0 13.0 0.00 0.04 0.00 67 1010.4
20260509161003 65 183 3.0 9.0 0.00 0.04 0.00 70 1010.4
20260509160718 65 184 4.0 12.0 0.00 0.04 0.00 69 1010.6
20260509160003 65 191 5.0 12.0 0.00 0.04 0.00 68 1010.6
20260509155503 64 195 5.0 12.0 0.00 0.04 0.00 68 1010.7
20260509155003 64 192 5.0 12.0 0.00 0.04 0.00 70 1010.8
20260509154503 63 210 4.0 10.0 0.00 0.04 0.00 73 1010.7
20260509154003 63 238 3.0 7.0 0.00 0.04 0.00 74 1010.9
20260509153503 63 220 3.0 6.0 0.00 0.04 0.00 73 1010.9
20260509153003 63 223 3.0 6.0 0.00 0.04 0.00 74 1010.9
20260509152718 63 222 3.0 5.0 0.00 0.04 0.00 78 1010.9
20260509152003 62 266 3.0 6.0 0.00 0.04 0.00 77 1010.9
20260509151718 62 277 3.0 6.0 0.00 0.04 0.00 75 1010.9
20260509151003 62 243 2.0 6.0 0.00 0.04 0.00 77 1010.7
20260509150503 62 198 3.0 9.0 0.00 0.04 0.00 80 1010.7
20260509150003 61 185 4.0 9.0 0.00 0.04 0.00 79 1010.7
20260509145503 61 182 4.0 8.0 0.00 0.04 0.00 79 1010.9
20260509145003 61 187 3.0 8.0 0.00 0.04 0.00 80 1010.8
20260509144718 61 188 3.0 8.0 0.00 0.04 0.00 80 1010.8
20260509144003 60 194 3.0 12.0 0.00 0.04 0.00 81 1010.8
20260509143503 60 209 3.0 12.0 0.00 0.04 0.00 81 1010.8
20260509143003 60 221 2.0 7.0 0.00 0.04 0.00 83 1010.7
20260509142717 59 204 2.0 7.0 0.00 0.04 0.00 83 1010.7
20260509142216 59 180 2.0 4.0 0.00 0.04 0.00 84 1010.8
20260509141717 59 182 2.0 9.0 0.00 0.04 0.00 83 1010.8
20260509141003 59 189 2.0 9.0 0.00 0.04 0.00 83 1010.9
20260509140717 59 190 3.0 9.0 0.00 0.04 0.00 83 1010.8
20260509140221 58 195 2.0 10.0 0.00 0.04 0.00 84 1010.9
20260509135503 58 230 2.0 7.0 0.00 0.04 0.00 83 1010.9
20260509135003 59 214 3.0 7.0 0.00 0.04 0.00 84 1010.9
20260509134503 59 194 3.0 7.0 0.00 0.04 0.00 86 1010.9
20260509134003 59 196 3.0 7.0 0.00 0.04 0.00 86 1011.0
20260509133503 59 200 3.0 7.0 0.00 0.04 0.00 87 1011.0
20260509133003 58 182 3.0 7.0 0.00 0.04 0.00 87 1011.0
20260509132717 58 169 3.0 8.0 0.00 0.04 0.00 88 1011.0
20260509132003 58 181 5.0 10.0 0.00 0.04 0.00 89 1010.9
20260509131503 57 205 4.0 10.0 0.00 0.04 0.00 89 1010.9
20260509131003 57 203 4.0 11.0 0.00 0.04 0.00 89 1011.0
20260509130503 56 196 4.0 11.0 0.00 0.04 0.00 88 1011.1
20260509130003 57 186 4.0 12.0 0.00 0.04 0.00 89 1011.0
20260509125503 56 184 5.0 12.0 0.00 0.04 0.00 89 1011.0
20260509125003 56 190 4.0 10.0 0.00 0.04 0.00 89 1011.0
20260509124503 56 189 4.0 12.0 0.00 0.04 0.00 89 1011.1
20260509124003 56 183 5.0 12.0 0.00 0.04 0.00 90 1011.1
20260509123503 56 187 5.0 9.0 0.00 0.04 0.00 90 1011.1
20260509123003 56 191 4.0 11.0 0.00 0.04 0.00 90 1011.2
20260509122503 56 177 4.0 11.0 0.00 0.04 0.00 91 1011.2
20260509122003 56 178 4.0 10.0 0.00 0.04 0.00 90 1011.3
20260509121503 56 188 4.0 10.0 0.00 0.04 0.00 91 1011.3
20260509121003 55 181 4.0 10.0 0.00 0.04 0.00 91 1011.3
20260509120503 55 176 4.0 8.0 0.00 0.04 0.00 91 1011.3
20260509120003 55 184 4.0 9.0 0.00 0.04 0.00 91 1011.3
20260509115503 55 194 4.0 9.0 0.00 0.04 0.00 91 1011.4
20260509115003 55 200 4.0 8.0 0.00 0.04 0.00 91 1011.4
20260509114503 55 204 3.0 8.0 0.00 0.04 0.00 92 1011.4
20260509114003 55 254 3.0 6.0 0.00 0.04 0.00 92 1011.3
20260509113503 55 309 3.0 6.0 0.00 0.04 0.00 91 1011.2
20260509113003 55 300 3.0 8.0 0.00 0.04 0.00 91 1011.4
20260509112716 54 310 3.0 8.0 0.00 0.04 0.00 91 1011.3
20260509112003 54 2 3.0 8.0 0.00 0.04 0.00 91 1011.2
20260509111503 54 176 3.0 6.0 0.00 0.04 0.00 91 1011.2
20260509111003 54 178 3.0 6.0 0.00 0.04 0.00 92 1011.2
20260509110503 54 178 3.0 6.0 0.00 0.04 0.00 92 1011.1
20260509110003 54 178 2.0 7.0 0.00 0.04 0.00 92 1011.0
20260509105503 54 178 3.0 7.0 0.00 0.04 0.00 92 1011.0
20260509105003 54 178 3.0 6.0 0.00 0.04 0.00 92 1011.0
20260509104718 54 178 2.0 6.0 0.00 0.04 0.00 92 1011.0
20260509104003 54 178 3.0 6.0 0.00 0.04 0.00 92 1011.1
20260509103718 54 178 3.0 6.0 0.00 0.04 0.00 92 1011.1
20260509103003 54 178 3.0 6.0 0.00 0.04 0.00 92 1011.1
20260509102503 54 178 3.0 6.0 0.00 0.04 0.00 92 1011.2
20260509102003 54 178 3.0 6.0 0.00 0.04 0.00 92 1011.2
20260509101503 54 178 2.0 5.0 0.00 0.04 0.00 92 1011.1
20260509101003 54 178 2.0 6.0 0.00 0.04 0.00 91 1011.2
20260509100503 54 178 2.0 6.0 0.00 0.04 0.00 91 1011.2
20260509100217 54 178 2.0 6.0 0.00 0.04 0.00 91 1011.2
20260509095718 54 178 2.0 5.0 0.00 0.04 0.00 91 1011.2
20260509095217 54 178 2.0 4.0 0.00 0.04 0.00 91 1011.2
20260509094503 54 178 2.0 4.0 0.00 0.04 0.00 91 1011.1
20260509094003 54 179 2.0 7.0 0.00 0.04 0.00 91 1011.3
20260509093503 54 180 3.0 7.0 0.00 0.04 0.00 91 1011.2
20260509093003 54 181 3.0 6.0 0.00 0.04 0.00 91 1011.3
20260509092503 54 182 3.0 6.0 0.00 0.04 0.00 91 1011.3
20260509092003 54 182 3.0 5.0 0.00 0.04 0.00 91 1011.3
20260509091503 54 182 3.0 5.0 0.00 0.04 0.00 91 1011.3
20260509091003 54 183 3.0 5.0 0.00 0.04 0.00 91 1011.4
20260509090503 54 184 3.0 6.0 0.00 0.04 0.00 91 1011.5
20260509090003 54 186 3.0 6.0 0.00 0.04 0.00 91 1011.5
20260509085503 54 186 3.0 6.0 0.00 0.04 0.00 91 1011.6
20260509085003 54 187 3.0 6.0 0.00 0.04 0.00 91 1011.6
20260509084503 54 187 3.0 6.0 0.00 0.04 0.00 91 1011.7
20260509084003 54 181 3.0 7.0 0.00 0.04 0.00 91 1011.7
20260509083503 54 184 3.0 7.0 0.00 0.04 0.00 91 1011.8
20260509083003 54 191 3.0 6.0 0.00 0.04 0.00 91 1011.8
20260509082503 54 184 4.0 9.0 0.00 0.04 0.00 91 1011.8
20260509082003 54 177 5.0 10.0 0.00 0.04 0.00 91 1011.8
20260509081503 54 166 4.0 10.0 0.00 0.04 0.00 91 1011.8
20260509081003 54 167 3.0 10.0 0.00 0.04 0.00 91 1011.8
20260509080503 54 180 3.0 7.0 0.00 0.04 0.00 91 1011.6
20260509080003 54 180 3.0 7.0 0.00 0.04 0.00 91 1011.7
20260509075503 54 179 3.0 8.0 0.00 0.04 0.00 91 1011.7
20260509075003 54 178 3.0 8.0 0.00 0.04 0.00 91 1011.7
20260509074717 54 178 3.0 8.0 0.00 0.04 0.00 91 1011.7
20260509074003 54 191 4.0 8.0 0.00 0.04 0.00 91 1011.6
20260509073503 54 199 4.0 9.0 0.00 0.04 0.00 91 1011.6
20260509073218 54 203 4.0 9.0 0.00 0.04 0.00 91 1011.6
20260509072503 54 189 5.0 10.0 0.00 0.04 0.00 91 1011.8
20260509072003 54 175 5.0 10.0 0.00 0.04 0.00 91 1011.9
20260509071503 54 179 4.0 8.0 0.00 0.04 0.00 91 1011.9
20260509071003 54 182 4.0 9.0 0.00 0.04 0.00 91 1011.9
20260509070504 54 183 4.0 9.0 0.00 0.04 0.00 91 1012.0
20260509070003 54 183 4.0 7.0 0.00 0.04 0.00 91 1012.0